Location: Newark
(54.0500°N, 12.8333°E)
Time: 23:22:12
(UTC+00:00)

deb Explorer IX - All Passes

Search period start: 26 January 2020 00:00
Search period end: 05 February 2020 00:00
Orbit: 548 x 1101 km, 38.8° (Epoch: 26 January)

Date Brightness Start Highest point End Pass type
(mag) Time Alt. Az. Time Alt. Az. Time Alt. Az.
26 Jan - 00:47:20 10° WSW 00:51:51 18° SSW 00:56:15 10° SSE night (unlit)
26 Jan - 20:52:43 10° SSW 20:57:24 19° SSE 21:02:11 10° ESE night (unlit)
26 Jan - 22:37:57 10° SW 22:43:25 23° S 22:48:52 10° SE night (unlit)
27 Jan - 00:24:52 10° WSW 00:29:24 18° SSW 00:33:51 10° SSE night (unlit)
27 Jan - 20:30:19 10° SSW 20:34:56 19° SSE 20:39:41 10° ESE visible
27 Jan - 22:15:31 10° SW 22:20:56 23° S 22:26:25 10° SE night (unlit)
28 Jan - 00:02:23 10° WSW 00:06:56 18° SSW 00:11:26 10° SSE night (unlit)
28 Jan - 20:07:56 10° SSW 20:12:28 19° SSE 20:17:10 10° ESE visible
28 Jan - 21:53:06 10° SW 21:58:28 23° S 22:03:56 10° SE night (unlit)
28 Jan - 23:39:56 10° WSW 23:44:28 18° SSW 23:48:58 10° SSE night (unlit)
29 Jan - 19:45:35 10° SSW 19:50:00 18° SSE 19:54:38 10° ESE visible
29 Jan - 21:30:42 10° SW 21:35:59 23° S 21:41:26 10° SE night (unlit)
29 Jan - 23:17:30 10° WSW 23:21:59 18° SSW 23:26:29 10° SSE night (unlit)
30 Jan - 19:23:15 10° SSW 19:27:32 18° SSE 19:32:05 10° ESE visible
30 Jan - 21:08:19 10° SW 21:13:30 23° S 21:18:54 10° SE visible
30 Jan - 22:55:05 10° WSW 22:59:29 17° SSW 23:03:58 10° SSE night (unlit)
31 Jan - 19:00:56 10° SSW 19:05:05 18° SSE 19:09:29 10° ESE visible
31 Jan - 20:45:57 10° SW 20:51:01 22° S 20:56:20 10° SE visible
31 Jan - 22:32:41 10° WSW 22:37:01 17° SSW 22:41:25 10° SSE night (unlit)
01 Feb - 18:38:37 10° SSW 18:42:37 17° SSE 18:46:53 10° ESE visible
01 Feb - 20:23:37 10° SW 20:28:32 22° S 20:33:46 10° SE visible
01 Feb - 22:10:19 10° WSW 22:14:31 17° SSW 22:18:50 10° SSE night (unlit)
02 Feb - 18:16:21 10° SSW 18:20:11 17° SSE 18:24:16 10° SE visible
02 Feb - 20:01:17 10° SW 20:06:03 22° S 20:11:10 10° SE visible
02 Feb - 21:47:58 10° SW 21:52:02 16° SSW 21:56:13 10° SSE night (unlit)
03 Feb - 17:54:05 10° SSW 17:57:44 16° SSE 18:01:38 10° SE visible
03 Feb - 19:38:59 10° SW 19:43:35 21° S 19:48:33 10° SE visible
03 Feb - 21:25:39 10° SW 21:29:32 16° SSW 21:33:35 10° SSE visible
04 Feb - 17:31:51 10° SSW 17:35:18 16° SSE 17:38:59 10° SE visible
04 Feb - 19:16:41 10° SW 19:21:07 20° S 19:25:55 10° SE visible
04 Feb - 21:03:21 10° SW 21:07:03 15° SSW 21:10:55 10° SSE visible
